Probability
3 3 2 1 0 0 0 0 0 0 0 0 0 0 0 0 0 0 0 0 0 0 0 0 0 0 0 0 0 0 0 0 0 0 0 0 0 0
3 3 3 1 1 1 1 1 1 1 0 0 0 0 1 1 0 0 0 0 0 0 0 0 0 0 0 0 0 0 0 0 0 0 0 0 0 0
3 3 3 3 3 3 2 2 3 3 2 1 1 2 4 4 2 1 0 0 0 0 0 0 0 0 0 0 0 0 0 0 0 0 0 0 0 0
3 3 4 4 5 4 4 4 4 5 5 4 4 5 5 5 5 4 1 0 0 0 0 0 0 0 0 0 0 0 0 0 0 0 0 0 0 0
4 4 5 6 7 7 6 6 6 6 6 6 6 6 5 5 6 5 3 1 0 0 0 0 0 0 0 0 0 0 0 0 0 0 0 0 0 0
7 7 6 6 8 9 8 7 7 7 6 6 6 6 6 6 6 5 4 3 1 0 0 0 0 0 0 0 0 0 0 0 0 0 0 0 0 0
15 13 9 5 6 7 6 6 7 7 6 6 6 6 7 7 6 5 4 3 2 1 0 0 0 0 0 0 0 0 0 0 0 0 0 0 0 0
21 19 13 5 3 4 3 3 4 5 5 5 5 6 7 7 6 5 4 3 3 1 1 0 0 0 0 0 0 0 0 0 0 0 0 0 0 0
20 22 17 9 6 5 4 3 4 3 3 2 3 4 5 6 6 5 4 3 3 3 2 1 0 0 0 0 0 0 0 0 0 0 0 0 0 0
14 17 19 16 11 7 5 7 8 6 2 1 1 1 2 3 3 3 3 2 3 3 2 1 0 0 0 0 0 0 0 0 0 0 0 0 0 0
8 9 13 14 10 4 4 8 10 7 4 1 0 0 0 1 1 1 1 1 1 2 2 1 0 0 0 0 0 0 0 0 0 0 0 0 0 0
6 5 5 5 3 1 2 5 6 6 6 3 2 2 1 0 0 0 0 0 0 1 1 1 1 0 0 0 0 0 0 0 0 0 0 0 0 0
7 4 1 0 0 0 1 2 3 4 5 5 3 3 3 1 1 2 3 2 1 0 1 1 1 0 0 0 0 0 0 0 0 0 0 0 0 0
4 3 1 0 0 0 0 0 1 1 2 2 2 2 2 2 4 8 11 10 6 2 0 0 1 1 1 0 0 0 0 0 0 0 0 0 0 0
1 1 0 0 0 0 0 0 0 0 0 0 0 0 0 1 5 11 16 15 10 5 3 4 3 2 1 0 0 0 0 0 0 1 1 1 0 0
0 0 1 1 1 0 0 0 1 0 0 0 0 1 1 1 4 8 12 12 8 6 7 9 9 5 3 1 1 1 1 1 1 1 1 1 1 1
0 0 1 2 2 1 0 1 2 1 1 1 1 2 2 1 2 5 7 6 4 4 7 9 9 7 4 2 1 0 0 0 0 0 0 0 1 1
0 0 1 1 1 0 0 1 2 2 2 3 1 1 2 2 2 4 5 4 2 2 3 4 3 3 3 1 0 0 0 0 0 0 0 0 0 1
0 0 0 0 0 0 0 1 2 1 2 3 2 1 2 3 2 2 3 3 1 1 1 1 0 0 0 0 0 0 0 0 0 0 0 0 0 0
0 0 0 0 0 0 1 1 1 0 1 2 2 2 3 3 1 0 1 2 1 0 0 1 1 0 0 0 0 0 0 0 0 0 0 0 0 0
0 0 0 0 0 0 1 1 0 0 0 1 1 1 1 1 0 0 0 0 0 0 0 1 2 1 1 1 0 0 0 0 0 0 0 0 0 0
0 0 0 0 0 0 1 1 0 0 0 0 0 0 0 0 0 0 0 0 0 0 0 1 2 3 1 1 0 0 0 0 0 0 0 0 0 0
0 0 0 0 0 0 0 1 0 1 1 1 1 1 1 0 0 0 0 0 0 0 0 1 3 4 2 1 0 0 0 1 1 1 0 0 0 0
Wind_Speed
3 3 2 2 1 1 1 2 2 3 2 0 0 2 2 2 6 3 2 7 9 8 8 7 7 6 6 7 7 7 8 9 9 10 11 12 12 14
2 2 2 2 1 1 1 2 2 2 2 2 1 1 1 1 3 2 3 6 11 12 12 11 10 9 8 8 8 8 8 9 10 10 11 12 12 12
4 4 4 3 2 2 2 2 2 2 3 3 2 1 1 2 2 3 4 5 6 14 15 14 13 12 11 10 10 9 9 10 10 10 11 11 12 12
5 4 4 4 4 3 3 3 3 3 3 4 3 3 4 4 4 5 5 6 5 8 13 15 15 14 13 13 12 11 11 11 11 11 11 11 11 12
5 5 5 5 5 4 4 4 3 4 3 4 4 4 3 4 4 4 6 5 7 8 10 14 15 15 15 14 14 14 13 13 13 12 12 12 12 12
6 6 6 6 6 5 5 5 5 4 4 4 4 4 4 4 3 4 4 4 5 6 5 6 12 17 17 17 16 16 15 15 14 14 13 13 13 12
7 6 7 9 9 7 6 4 4 4 4 4 5 4 4 3 3 3 4 3 4 4 4 4 4 6 9 13 16 17 17 16 16 15 15 14 14 13
7 7 8 9 11 13 13 11 8 7 6 5 5 5 5 4 3 3 3 4 4 3 2 4 4 4 5 6 12 17 18 18 17 16 16 15 15 15
6 6 8 10 9 9 12 15 14 15 14 9 9 9 7 6 5 5 4 5 5 4 3 5 5 5 5 7 10 13 16 17 17 17 17 16 16 16
7 7 8 8 9 8 8 9 10 11 13 13 12 12 11 8 7 7 7 7 7 6 6 7 6 6 7 5 9 11 14 16 17 18 17 17 16 16
9 9 10 9 12 12 9 9 9 9 12 16 17 17 17 15 9 5 6 6 8 7 6 7 6 6 5 5 7 12 14 16 17 18 18 17 17 15
7 8 12 12 12 11 9 9 11 10 9 10 10 13 14 14 16 11 9 9 8 7 6 6 5 5 5 5 5 5 7 12 16 17 17 17 16 9
6 6 6 8 11 11 10 9 12 10 8 8 8 8 9 10 11 12 12 11 11 10 6 5 5 4 5 4 4 4 4 5 6 9 14 17 17 13
6 6 5 7 8 9 9 12 14 12 9 9 9 9 8 8 8 10 13 14 13 13 9 6 5 5 5 6 5 5 5 5 5 6 6 11 15 18
7 9 10 11 11 9 13 15 12 9 9 10 11 10 9 8 8 7 9 11 13 14 13 11 10 7 7 7 7 6 6 5 5 5 5 6 6 7
7 9 11 14 13 13 13 11 10 11 11 11 10 9 8 7 7 7 7 7 9 9 11 12 11 11 10 9 8 7 6 6 5 5 6 5 5 6
4 6 8 8 8 8 8 8 8 8 10 10 10 9 9 8 8 7 7 7 8 8 7 7 10 11 11 9 8 8 8 7 6 6 6 6 6 6
4 7 8 9 10 10 9 8 8 8 8 8 9 9 9 9 8 7 7 8 8 8 8 7 6 6 7 9 12 11 9 8 7 7 7 7 8 6
5 8 9 8 8 9 8 8 8 8 7 7 8 8 8 8 7 7 7 7 8 8 8 7 7 7 9 10 9 13 11 8 7 7 7 7 8 7
6 8 8 8 7 7 8 8 8 7 6 7 7 7 7 7 7 7 7 8 8 8 8 7 7 8 9 9 7 6 12 10 8 8 8 7 7 8
7 7 7 7 7 7 7 7 7 7 7 7 7 7 7 7 7 7 7 10 9 8 8 8 8 10 7 5 6 7 7 12 13 9 7 6 6 6
7 7 7 8 8 7 8 7 7 7 7 7 7 7 6 6 7 8 7 7 7 8 9 7 6 5 5 7 9 9 8 7 10 15 14 12 7 7
7 8 8 8 8 7 7 8 9 8 7 7 7 7 7 6 6 7 7 7 7 7 7 6 5 5 6 7 8 8 9 8 6 6 8 13 18 18
Wind_Direction
234 218 245 267 262 309 320 328 324 323 328 297 152 139 148 142 167 214 214 203 209 216 224 233 241 248 253 253 250 248 246 244 243 241 240 240 240 239
240 242 249 282 274 263 267 274 272 283 297 311 292 173 152 271 188 236 261 233 218 222 225 228 231 235 240 245 247 247 247 246 244 244 243 242 242 241
235 226 222 250 276 284 262 251 248 248 268 288 293 294 229 244 242 246 260 249 231 229 227 225 226 229 233 237 240 243 246 247 246 247 247 245 243 243
229 234 229 231 222 246 268 269 261 248 246 268 278 273 255 234 229 231 254 264 260 250 227 222 222 225 228 232 235 238 241 244 244 244 245 246 246 246
225 229 231 234 235 234 242 257 267 268 244 252 264 260 251 245 240 242 253 255 263 269 232 219 222 225 228 231 232 233 235 237 239 240 241 243 244 246
229 229 232 233 232 231 241 240 248 261 264 259 258 257 249 237 222 232 254 247 252 268 269 230 221 225 229 231 231 232 232 233 234 236 238 240 242 244
231 231 234 236 235 233 242 240 247 248 256 258 258 260 257 255 248 245 259 266 257 250 252 253 232 223 226 234 236 235 232 230 230 231 233 236 238 241
235 236 240 235 233 231 236 240 239 244 253 260 268 266 266 265 266 267 266 269 272 265 267 269 262 251 238 223 224 224 226 227 227 228 230 232 234 237
245 246 253 253 236 228 229 233 239 241 236 241 255 259 264 267 270 270 265 263 262 269 283 271 261 260 255 264 256 230 223 223 224 225 227 229 231 233
247 248 249 257 260 251 245 238 231 234 231 230 238 246 250 250 250 253 256 264 260 251 239 253 252 250 257 253 253 242 228 225 224 225 227 229 230 232
248 249 247 248 249 248 249 251 251 248 245 237 225 230 235 240 239 248 253 257 263 257 237 238 244 246 246 245 244 241 232 226 225 226 227 229 231 232
251 251 249 248 251 244 241 248 252 252 255 261 244 239 241 242 233 228 237 246 254 258 243 238 243 244 256 246 242 239 232 233 231 231 231 231 230 227
258 260 260 254 246 246 243 248 253 258 264 261 258 248 238 234 230 223 220 227 238 243 243 240 247 244 247 257 255 249 234 230 225 231 233 234 229 217
264 273 289 306 290 271 259 257 259 261 262 261 259 255 250 244 235 227 218 218 224 233 240 242 249 251 257 264 263 255 248 240 232 227 220 223 227 224
269 282 293 294 293 280 260 257 257 255 253 254 254 253 251 250 247 239 229 223 224 229 235 231 234 240 242 250 258 257 258 251 240 239 236 226 215 206
273 287 290 280 270 265 266 259 246 244 245 251 254 255 253 252 251 248 242 233 232 232 228 226 226 230 239 243 247 253 252 252 249 244 243 241 231 218
307 287 279 277 272 267 262 257 251 245 242 244 250 255 256 256 254 249 248 242 238 239 238 228 225 224 228 231 244 248 252 253 248 246 246 249 243 235
286 276 276 275 275 276 275 272 265 257 253 251 251 250 251 250 252 253 254 251 248 244 241 237 231 232 237 238 228 242 248 250 249 244 241 247 251 243
259 268 272 275 277 279 281 283 283 280 273 265 261 259 257 256 254 254 258 259 257 254 249 240 233 232 240 248 238 219 232 243 246 247 244 241 247 246
265 275 279 281 281 283 285 285 286 289 286 282 277 271 265 258 259 255 252 254 257 259 258 248 237 232 235 245 251 242 223 232 240 245 248 244 245 246
296 297 296 298 299 299 300 299 297 294 292 290 285 281 276 271 266 261 258 259 254 255 255 251 243 234 235 237 249 252 242 227 227 233 237 242 248 248
303 306 308 308 307 305 302 299 298 296 297 293 288 284 284 282 275 269 266 264 258 255 258 258 249 235 232 238 247 253 254 250 238 239 240 235 232 239
317 316 314 310 308 307 307 307 306 301 299 298 297 295 293 288 284 280 277 274 270 267 265 262 256 246 243 242 247 251 254 254 252 246 245 239 236 241